Change the Weather History Date:

Saturday, January 19, 2013

  Actual Average Record
Temperature  
Mean Temperature 10 °F -  
Max Temperature 27 °F 18 °F 39 °F (1981)
Min Temperature -9 °F -5 °F -39 °F (1994)
Degree Days  
Heating Degree Days 55    
Moisture  
Dew Point 4 °F    
Average Humidity 77    
Maximum Humidity 93    
Minimum Humidity 66    
Precipitation  
Precipitation 0.00 in - - ()
Sea Level Pressure  
Sea Level Pressure 29.83 in    
Wind  
Wind Speed 14 mph (WNW)    
Max Wind Speed 33 mph    
Max Gust Speed 43 mph    
Visibility 4 miles    
Events Fog , Snow    
Averages and records for this station are not official NWS values.
T = Trace of Precipitation, MM = Missing Value Source: NWS Daily Summary

Daily Weather History Graph

Daily Weather History Graph

Search for Another Location

Airport or City:

Trip Planner

Search our weather history database for the weather conditions in past years. The results will help you decide how hot, cold, wet, or windy it might be!

Date:

Astronomy

Jan. 19, 2013 Rise Set
Actual Time 7:58 AM CST 5:04 PM CST
Civil Twilight 7:24 AM CST 5:38 PM CST
Nautical Twilight 6:47 AM CST 6:15 PM CST
Astronomical Twilight 6:10 AM CST 6:51 PM CST
Moon 11:35 AM CST (1/19) 1:27 AM CST (1/19)
Length of Visible Light 10h 13m
Length of Day
9h 06m
First Quarter, 57% of the Moon is Illuminated
Jan 19
First Quarter
Jan 26
Full
Feb 3
Last Quarter
Feb 10
New
Feb 17
First Quarter

Hourly Weather History & Observations

Time (CST) Temp. Windchill Dew Point Humidity Pressure Visibility Wind Dir Wind Speed Gust Speed Precip Events Conditions
12:19 AM 23.0 °F 15.8 °F 19.4 °F 86% 29.65 in 6.0 mi South 5.8 mph - N/A   Overcast
12:53 AM 23.0 °F - 19.9 °F 88% 29.72 in 7.0 mi Calm Calm - N/A   Overcast
1:53 AM 16.0 °F 5.3 °F 14.0 °F 92% 29.71 in 4.0 mi SSE 8.1 mph - N/A   Partly Cloudy
2:53 AM 17.1 °F - 15.1 °F 92% 29.72 in 2.5 mi Calm Calm - N/A   Partly Cloudy
3:10 AM 17.6 °F - 15.8 °F 93% 29.65 in 0.8 mi Calm Calm - N/A   Clear
3:30 AM 15.8 °F 7.2 °F 14.0 °F 93% 29.64 in 2.0 mi South 5.8 mph - N/A   Clear
3:42 AM 17.6 °F 10.7 °F 15.8 °F 93% 29.63 in 4.0 mi SSE 4.6 mph - N/A   Clear
3:53 AM 18.0 °F 9.8 °F 16.0 °F 92% 29.70 in 4.0 mi SSE 5.8 mph - N/A   Clear
4:53 AM 17.1 °F 10.0 °F 15.1 °F 92% 29.70 in 4.0 mi SSE 4.6 mph - N/A   Clear
5:53 AM 15.1 °F 7.7 °F 12.9 °F 91% 29.69 in 3.0 mi South 4.6 mph - N/A   Clear
6:20 AM 15.8 °F 8.6 °F 12.2 °F 86% 29.61 in 1.8 mi SW 4.6 mph - N/A   Clear
6:45 AM 14.0 °F 2.9 °F 10.4 °F 86% 29.62 in 0.5 mi WSW 8.1 mph - N/A Fog Light Freezing Fog
6:53 AM 14.0 °F 1.2 °F 10.9 °F 88% 29.70 in 1.2 mi West 10.4 mph - N/A   Clear
6:58 AM 15.8 °F 2.7 °F 12.2 °F 86% 29.61 in 3.0 mi West 11.5 mph - N/A   Clear
7:53 AM 26.1 °F 14.5 °F 23.0 °F 88% 29.70 in 10.0 mi WNW 13.8 mph - N/A   Overcast
8:32 AM 26.6 °F 13.8 °F 24.8 °F 93% 29.64 in 10.0 mi NW 17.3 mph 24.2 mph N/A   Overcast
8:53 AM 27.0 °F 12.5 °F 24.1 °F 89% 29.72 in 10.0 mi WNW 23.0 mph 28.8 mph N/A   Overcast
9:53 AM 26.1 °F 10.1 °F 21.0 °F 81% 29.74 in 6.0 mi WNW 27.6 mph 36.8 mph N/A   Haze
10:10 AM 24.8 °F 7.9 °F 19.4 °F 80% 29.68 in 2.5 mi WNW 29.9 mph 42.6 mph 0.00 in Snow Blowing Snow
10:19 AM 24.8 °F 8.1 °F 19.4 °F 80% 29.68 in 5.0 mi WNW 28.8 mph 34.5 mph 0.00 in   Haze
10:53 AM 19.0 °F 1.6 °F 12.9 °F 77% 29.79 in 6.0 mi WNW 24.2 mph 33.4 mph 0.00 in   Haze
11:20 AM 15.8 °F -4.1 °F 8.6 °F 73% 29.73 in 5.0 mi WNW 28.8 mph 38.0 mph 0.00 in   Partly Cloudy
11:33 AM 14.0 °F -5.5 °F 8.6 °F 79% 29.73 in 2.5 mi WNW 25.3 mph 33.4 mph 0.00 in Snow Light Snow
11:43 AM 14.0 °F -4.7 °F 6.8 °F 73% 29.73 in 1.5 mi WNW 23.0 mph 32.2 mph 0.00 in Snow Light Snow
11:50 AM 12.2 °F -9.3 °F 6.8 °F 79% 29.74 in 1.5 mi WNW 29.9 mph 34.5 mph 0.00 in Snow Light Snow
11:53 AM 12.9 °F -7.3 °F 7.0 °F 77% 29.83 in 1.0 mi WNW 26.5 mph 34.5 mph 0.00 in Snow Light Snow
12:00 PM 12.2 °F -8.6 °F 6.8 °F 79% 29.74 in 0.8 mi WNW 27.6 mph 35.7 mph 0.00 in Snow Light Snow
12:22 PM 10.4 °F -11.0 °F 3.2 °F 73% 29.76 in 1.2 mi WNW 27.6 mph 38.0 mph 0.00 in Snow Light Snow
12:53 PM 9.0 °F -12.2 °F 1.0 °F 70% 29.87 in 1.8 mi NW 25.3 mph 39.1 mph 0.00 in Snow Blowing Snow
12:58 PM 8.6 °F -12.3 °F -0.4 °F 67% 29.78 in 3.0 mi NW 24.2 mph 38.0 mph N/A Snow Blowing Snow
1:16 PM 6.8 °F -16.2 °F -0.4 °F 72% 29.79 in 1.8 mi NW 28.8 mph - 0.00 in   Overcast
1:35 PM 6.8 °F -15.9 °F -2.2 °F 67% 29.80 in 3.0 mi WNW 27.6 mph 40.3 mph 0.00 in Snow Blowing Snow
1:41 PM 6.8 °F -16.9 °F -2.2 °F 67% 29.81 in 1.8 mi WNW 31.1 mph 41.4 mph 0.00 in Snow Blowing Snow
1:53 PM 6.1 °F -17.9 °F -2.0 °F 69% 29.92 in 1.2 mi WNW 31.1 mph 40.3 mph 0.00 in Snow Blowing Snow
2:06 PM 3.2 °F -22.5 °F -5.8 °F 66% 29.83 in 2.5 mi NW 33.4 mph 42.6 mph 0.00 in Snow Blowing Snow
2:28 PM 3.2 °F -21.1 °F -5.8 °F 66% 29.84 in 1.8 mi WNW 28.8 mph 40.3 mph 0.00 in Snow Blowing Snow
2:33 PM 3.2 °F -18.6 °F -5.8 °F 66% 29.85 in 3.0 mi WNW 21.9 mph 38.0 mph 0.00 in Snow Blowing Snow
2:49 PM 3.2 °F -21.5 °F -5.8 °F 66% 29.86 in 1.8 mi WNW 29.9 mph 39.1 mph 0.00 in Snow Blowing Snow
2:53 PM 3.0 °F -21.4 °F -5.1 °F 69% 29.97 in 1.5 mi WNW 28.8 mph 40.3 mph 0.00 in Snow Light Snow
3:06 PM 1.4 °F -22.7 °F -7.6 °F 66% 29.88 in 3.0 mi WNW 26.5 mph 39.1 mph 0.00 in Snow Blowing Snow
3:34 PM 1.4 °F -21.9 °F -7.6 °F 66% 29.91 in 2.0 mi NW 24.2 mph 33.4 mph 0.00 in   Overcast
3:53 PM -0.0 °F -23.8 °F -8.0 °F 69% 30.04 in 2.0 mi NW 24.2 mph 36.8 mph 0.00 in   Overcast
4:06 PM -0.4 °F -21.7 °F -7.6 °F 72% 29.95 in 4.0 mi NW 18.4 mph 28.8 mph 0.00 in   Haze
4:53 PM -0.0 °F -20.7 °F -8.0 °F 69% 30.09 in 6.0 mi NW 17.3 mph 29.9 mph 0.00 in   Haze
5:53 PM -0.9 °F -23.5 °F -9.0 °F 69% 30.14 in 9.0 mi NW 20.7 mph 28.8 mph N/A   Overcast
6:53 PM -2.0 °F -23.3 °F -9.0 °F 72% 30.19 in 7.0 mi NW 17.3 mph 26.5 mph N/A   Overcast
7:49 PM -2.2 °F -20.7 °F -11.2 °F 66% 30.11 in 10.0 mi NNW 12.7 mph 23.0 mph N/A   Scattered Clouds
7:53 PM -2.9 °F -23.8 °F -11.0 °F 68% 30.22 in 10.0 mi NNW 16.1 mph 23.0 mph N/A   Partly Cloudy
8:53 PM -5.1 °F -25.9 °F -11.9 °F 72% 30.26 in 10.0 mi NW 15.0 mph - N/A   Partly Cloudy
9:53 PM -6.0 °F -25.5 °F -14.1 °F 68% 30.28 in 10.0 mi NW 12.7 mph - N/A   Clear
10:53 PM -7.6 °F -26.6 °F -14.8 °F 71% 30.19 in 10.0 mi NW 11.5 mph - N/A   Clear
11:53 PM -9.4 °F -27.9 °F -14.8 °F 77% 30.21 in 10.0 mi WNW 10.4 mph - N/A   Clear